Location: Aranbee
(34.0885°N, 118.2342°W)
Time: 23:01:30
(UTC+00:00)

Tiros 1 - Pass Details

Date: 04 December 2020
Orbit: 630 x 663 km, 48.4° (Epoch: 20 January)

Event Time Altitude Azimuth Distance (km) Brightness Sun altitude
Rises 23:46:33 0° 302° (WNW) 2,994 10.9 9.2°
Reaches altitude 10° 23:50:00 10° 328° (NNW) 2,079 9.8 8.7°
Maximum altitude 23:52:34 14° 0° (N) 1,809 9.2 8.2°
Drops below altitude 10° 23:55:07 10° 33° (NNE) 2,074 9.2 7.8°
Sets 23:58:33 0° 58° (ENE) 2,980 9.9 7.2°
